Powrót do katalogu

YIZHENG 1

AktywnyMilitariaSSO
NORAD 44886·PAYLOAD·🇨🇳 China
Ta nazwa satelity nie została jeszcze potwierdzona przez oficjalne źródła.

Wystrzelony Dec 20, 2019 z Taiyuan Satellite Launch Center

Loading…

Następne Przeloty (najbliższe 24 godziny)

TLE

ŚwieżeSource: Space-Track

Epoka: Sep 14, 2026, 14:34 UTC

1 44886U 19093H   26257.60756253  .00002631  00000-0  24244-3 0  9999
2 44886  97.7992 345.3201 0013007 122.2703 237.9779 14.95512752365549

Śledź YIZHENG 1 w czasie rzeczywistym z AllMySat

Download on the App Store